Regional Weather Roundup
Issued by NWS Jackson, KY

Home | Current Version | Previous Version | Text Only | Print | Product List | Glossary On
Versions: 1 2 3 4 5 6 7 8 9 10 11 12 13 14 15 16 17 18 19 20 21 22 23 24 25 26 27 28 29 30 31 32 33 34 35 36 37 38 39 40 41 42 43 44 45 46 47 48 49
000
ASUS43 KJKL 032310
RWRJKL

EAST KENTUCKY HOURLY WEATHER ROUNDUP
NATIONAL WEATHER SERVICE JACKSON KY
700 PM EDT THU SEP 03 2015

NOTE: "FAIR" INDICATES FEW OR NO CLOUDS BELOW 12,000 FEET WITH
NO SIGNIFICANT WEATHER AND/OR OBSTRUCTIONS TO VISIBILITY.

* THESE REPORTS ARE NOT UNDER NWS QUALITY CONTROL AND MAY NOT
  REPORT WEATHER SUCH AS PRECIPITATION AND FOG.

KYZ079-080-083-085-087-088-110-112-115-119-120-040000
...EASTERN KENTUCKY...

CITY           SKY/WX    TMP DP  RH WIND       PRES   REMARKS
JACKSON        MOSUNNY   83  69  62 CALM      29.99S
LONDON         SUNNY     83  64  52 SW5       29.98S
SOMERSET*      SUNNY     86  63  45 NW6       29.97S
MONTICELLO*    SUNNY     86  71  60 CALM      29.99F HX  91
WILLIAMSBURG*  MOSUNNY   81  66  61 SE6       29.98S
MIDDLESBORO*   SUNNY     84  70  61 W3        29.97S
HARLAN APT*      N/A     84  64  51 MISG      29.99S
HAZARD APT*    CLEAR     84  66  54 CALM      29.98F
BLACK MTN*       N/A     68  63  83 VRB6        N/A
PIKEVILLE APT* SUNNY     79  66  65 N5        29.99S
BIG SANDY*     MOCLDY    81  70  68 CALM      29.99R
MOREHEAD APT*  PTCLDY    86  68  54 CALM      29.99R
$$

KYZ035-036-041-042-044-050-067-078-099-040000
...CENTRAL KENTUCKY...

CITY           SKY/WX    TMP DP  RH WIND       PRES   REMARKS
MT STERLING*   SUNNY     86  68  54 N3        29.98S
FLEMING/MASON* SUNNY     86  66  51 CALM      29.97S
DANVILLE*      MOSUNNY   86  66  51 W7        29.98S
RICHMOND*      MOSUNNY   88  63  42 CALM      29.96S
LEXINGTON      SUNNY     88  64  44 NW6       29.96F
FRANKFORT      SUNNY     88  64  44 NW3       29.94F
$$

KYZ091>093-OHZ055-061-077-WVZ005-015-034-035-042-040000
...SOUTHERN OHIO/WEST VIRGINIA...

CITY           SKY/WX    TMP DP  RH WIND       PRES   REMARKS
COVINGTON      MOSUNNY   88  65  46 W6        29.95S HX  90
COLUMBUS       MOSUNNY   79  67  66 E3        29.93F
DAYTON         MOSUNNY   86  65  49 W9        29.95S
WILMINGTON     SUNNY     86  65  49 NW7       29.95S
HUNTINGTON     MOSUNNY   82  65  56 SE6       29.96R
CHARLESTON     PTCLDY    83  69  62 CALM      29.96R
PINEVILLE*     MOCLDY    76  72  88 MISG      30.06R
BECKLEY        PTCLDY    78  65  63 N7        30.05R
BLUEFIELD      MOCLDY    74  61  63 NW5       30.08R
$$

VAZ002-007-008-TNZ017-027-036-066-071-040000
...SOUTHWEST VIRGINIA/EAST TENNESSEE...

CITY           SKY/WX    TMP DP  RH WIND       PRES   REMARKS
WISE*          SUNNY     79  59  50 N5        30.07S
JONESVILLE*    CLEAR     86  64  48 CALM      29.99S
ABINGDON*      PTCLDY    83  62  47 CALM      30.02R
BRISTOL        MOSUNNY   84  66  54 S3        29.98S
KNOXVILLE      MOSUNNY   88  60  38 NE7       29.94S
OAK RIDGE      SUNNY     89  65  44 CALM      29.96F HX  91
CROSSVILLE     SUNNY     81  64  56 NE3       30.02S
NASHVILLE      PTSUNNY   91  61  36 E7        29.93F HX  91
$$

...KEY TO REMARKS...
VSB - VISIBILITY IN MILES
WCI - WIND CHILL INDEX
HX  - HEAT INDEX

$$



USA.gov is the U.S. government's official web portal to all federal, state and local government web resources and services.